User: anonymous   Login
Location: Carrer del Canonge
(41.4901°N, 2.2931°E)
Time: 22:34:34
(UTC+00:00)
Language:

NOSS 2-2 (E) - Orbit

View from above orbital plane
View from above orbital plane
View from above satellite
View from above satellite

Ground track
Ground track

The orbit data is extracted from the following two-line orbital elements,

1 21809U 91076E   20300.73244684 0.00000300  00000-0  54541-4 0    05
2 21809  63.3257 160.1645 0849385  37.8711 322.1288 13.41602468    06
Epoch (UTC): 26 October 2020 17:34:43
Eccentricity: 0.0849385
inclination: 63.3257°
perigee height: 468 km
apogee height: 1739 km
right ascension of ascending node: 160.1645°
argument of perigee: 37.8711°
revolutions per day: 13.41602468
mean anomaly at epoch: 322.1288°
orbit number at epoch: 0

The dashed part of the orbit path shows where the satellite is in the earth's shadow,  

DLR